TimeGMT,TemperatureF,Dew PointF,Humidity,Sea Level PressureIn,VisibilityMPH,Wind Direction,Wind SpeedMPH,Gust SpeedMPH,PrecipitationIn,Events,Conditions,WindDirDegrees,DateUTC
5:50 AM,48.2,46.4,93,30.09,6.2,SSE,5.8,-,N/A,Rain,Light Rain,150,2013-01-07 05:50:00
6:20 AM,48.2,46.4,93,30.09,6.2,SSE,8.1,-,N/A,Rain,Light Rain,150,2013-01-07 06:20:00
6:50 AM,48.2,46.4,93,30.09,6.2,SSE,9.2,-,N/A,Rain,Light Rain,160,2013-01-07 06:50:00
7:20 AM,48.2,46.4,93,30.06,6.2,SSE,6.9,-,N/A,Rain,Light Rain,160,2013-01-07 07:20:00
7:50 AM,48.2,46.4,93,30.06,3.1,SSE,6.9,-,N/A,Rain,Light Rain,160,2013-01-07 07:50:00
8:20 AM,48.2,46.4,93,30.06,3.7,South,8.1,-,N/A,Rain,Light Rain,180,2013-01-07 08:20:00
8:50 AM,48.2,46.4,93,30.06,3.7,South,8.1,-,N/A,Rain,Light Rain,180,2013-01-07 08:50:00
9:20 AM,48.2,48.2,100,30.06,3.7,South,9.2,-,N/A,Rain,Light Rain,170,2013-01-07 09:20:00
9:50 AM,48.2,48.2,100,30.06,3.7,South,8.1,-,N/A,Rain,Light Rain,170,2013-01-07 09:50:00
10:20 AM,48.2,48.2,100,30.04,2.2,SSE,8.1,-,N/A,Rain,Light Rain,160,2013-01-07 10:20:00
10:50 AM,50.0,48.2,94,30.04,2.5,South,6.9,-,N/A,Rain,Light Rain,170,2013-01-07 10:50:00
11:20 AM,50.0,48.2,94,30.04,3.1,SSE,8.1,-,N/A,Rain,Light Rain,160,2013-01-07 11:20:00
11:50 AM,50.0,50.0,100,30.04,2.5,South,8.1,-,N/A,Rain,Light Rain,170,2013-01-07 11:50:00
12:20 PM,50.0,50.0,100,30.01,3.7,South,6.9,-,N/A,Rain,Light Rain,170,2013-01-07 12:20:00
12:50 PM,50.0,50.0,100,30.01,1.9,SSE,6.9,-,N/A,Rain,Light Rain,160,2013-01-07 12:50:00
1:20 PM,51.8,50.0,94,30.01,5.0,South,9.2,-,N/A,Rain,Light Rain,180,2013-01-07 13:20:00
1:50 PM,51.8,50.0,94,30.01,6.2,South,10.4,-,N/A,Rain,Light Rain,190,2013-01-07 13:50:00
2:20 PM,51.8,50.0,94,30.01,6.2,South,10.4,-,N/A,Rain,Light Rain,190,2013-01-07 14:20:00
2:50 PM,51.8,50.0,94,30.01,6.2,South,10.4,-,N/A,Rain,Light Rain,190,2013-01-07 14:50:00
3:20 PM,51.8,50.0,94,30.01,6.2,South,10.4,-,N/A,,Mostly Cloudy,180,2013-01-07 15:20:00
3:50 PM,53.6,50.0,88,30.01,6.2,SSW,8.1,-,N/A,,Mostly Cloudy,200,2013-01-07 15:50:00
4:20 PM,53.6,50.0,88,30.01,6.2,South,10.4,-,N/A,,Mostly Cloudy,180,2013-01-07 16:20:00
4:50 PM,51.8,50.0,94,30.01,6.2,South,11.5,-,N/A,,Mostly Cloudy,190,2013-01-07 16:50:00
5:20 PM,51.8,50.0,94,30.01,6.2,South,11.5,-,N/A,,Mostly Cloudy,190,2013-01-07 17:20:00
5:50 PM,51.8,50.0,94,30.01,6.2,South,6.9,-,N/A,,Mostly Cloudy,190,2013-01-07 17:50:00
6:20 PM,51.8,51.8,100,30.01,6.2,South,9.2,-,N/A,,Mostly Cloudy,190,2013-01-07 18:20:00
6:50 PM,51.8,51.8,100,30.01,6.2,South,6.9,-,N/A,Rain,Light Rain,180,2013-01-07 18:50:00
7:20 PM,51.8,51.8,100,30.01,6.2,South,8.1,-,N/A,Rain,Light Rain,170,2013-01-07 19:20:00
7:50 PM,51.8,51.8,100,30.01,6.2,South,6.9,-,N/A,,Light Drizzle,180,2013-01-07 19:50:00
8:20 PM,51.8,50.0,94,30.01,3.1,SSE,8.1,-,N/A,,Light Drizzle,150,2013-01-07 20:20:00
8:50 PM,50.0,50.0,100,30.01,6.2,SSE,6.9,-,N/A,Rain,Light Rain,160,2013-01-07 20:50:00